Time,TemperatureF,DewpointF,PressureIn,WindDirection,WindDirectionDegrees,WindSpeedMPH,WindSpeedGustMPH,Humidity,HourlyPrecipIn,Conditions,Clouds,dailyrainin,SoftwareType,DateUTC
2013-12-04 00:01:00,67.1,64.1,29.80,SE,136,2.0,2.0,90,0.00,,,0.00,WeatherCatV1.02B3,2013-12-04 06:01:00,
2013-12-04 00:06:00,67.0,64.0,29.80,South,179,0.0,2.0,90,0.00,,,0.00,WeatherCatV1.02B3,2013-12-04 06:06:00,
2013-12-04 00:11:00,66.9,64.2,29.80,South,182,0.0,3.0,91,0.00,,,0.00,WeatherCatV1.02B3,2013-12-04 06:11:00,
2013-12-04 00:16:00,66.9,64.2,29.80,SE,125,0.0,2.0,91,0.00,,,0.00,WeatherCatV1.02B3,2013-12-04 06:16:00,
2013-12-04 00:21:00,66.9,64.2,29.80,SSE,157,5.0,5.0,91,0.00,,,0.00,WeatherCatV1.02B3,2013-12-04 06:21:00,
2013-12-04 00:26:00,66.9,64.2,29.80,South,174,2.0,4.0,91,0.00,,,0.00,WeatherCatV1.02B3,2013-12-04 06:26:00,
2013-12-04 00:31:00,66.9,64.2,29.80,ESE,113,0.0,6.0,91,0.00,,,0.00,WeatherCatV1.02B3,2013-12-04 06:31:00,
2013-12-04 00:36:00,66.8,64.1,29.80,SE,143,0.0,7.0,91,0.00,,,0.00,WeatherCatV1.02B3,2013-12-04 06:36:00,
2013-12-04 00:41:00,66.8,64.1,29.80,ESE,122,0.0,4.0,91,0.00,,,0.00,WeatherCatV1.02B3,2013-12-04 06:41:00,
2013-12-04 00:46:00,66.7,64.0,29.80,South,172,2.0,4.0,91,0.00,,,0.00,WeatherCatV1.02B3,2013-12-04 06:46:00,
2013-12-04 00:51:00,66.7,64.0,29.80,SSE,166,0.0,4.0,91,0.00,,,0.00,WeatherCatV1.02B3,2013-12-04 06:51:00,
2013-12-04 00:56:00,66.6,63.9,29.80,South,172,0.0,4.0,91,0.00,,,0.00,WeatherCatV1.02B3,2013-12-04 06:56:00,
2013-12-04 01:01:00,66.6,64.2,29.80,South,171,0.0,2.0,92,0.00,,,0.00,WeatherCatV1.02B3,2013-12-04 07:01:00,
2013-12-04 01:06:00,66.5,64.1,29.80,South,171,0.0,4.0,92,0.00,,,0.00,WeatherCatV1.02B3,2013-12-04 07:06:00,
2013-12-04 01:11:00,66.5,64.1,29.80,South,175,0.0,1.0,92,0.00,,,0.00,WeatherCatV1.02B3,2013-12-04 07:11:00,
2013-12-04 01:16:00,66.4,64.0,29.80,South,172,0.0,4.0,92,0.00,,,0.00,WeatherCatV1.02B3,2013-12-04 07:16:00,
2013-12-04 01:21:00,66.3,63.9,29.80,SSE,157,4.0,6.0,92,0.00,,,0.00,WeatherCatV1.02B3,2013-12-04 07:21:00,
2013-12-04 01:26:00,66.3,63.9,29.80,SE,143,0.0,8.0,92,0.00,,,0.00,WeatherCatV1.02B3,2013-12-04 07:26:00,
2013-12-04 01:31:00,66.3,63.9,29.80,SSE,148,0.0,0.0,92,0.00,,,0.00,WeatherCatV1.02B3,2013-12-04 07:31:00,
2013-12-04 01:36:00,66.2,63.8,29.80,South,170,2.0,6.0,92,0.00,,,0.00,WeatherCatV1.02B3,2013-12-04 07:36:00,
2013-12-04 01:41:00,66.2,63.8,29.80,SE,136,0.0,2.0,92,0.00,,,0.00,WeatherCatV1.02B3,2013-12-04 07:41:00,
2013-12-04 01:46:00,66.2,64.1,29.80,SE,126,0.0,2.0,93,0.00,,,0.00,WeatherCatV1.02B3,2013-12-04 07:46:00,
2013-12-04 01:51:00,66.2,64.1,29.80,SSE,150,2.0,5.0,93,0.00,,,0.00,WeatherCatV1.02B3,2013-12-04 07:51:00,
2013-12-04 01:56:00,66.1,64.0,29.80,SSE,167,0.0,4.0,93,0.00,,,0.00,WeatherCatV1.02B3,2013-12-04 07:56:00,
2013-12-04 02:01:00,66.0,63.9,29.80,SE,138,0.0,0.0,93,0.00,,,0.00,WeatherCatV1.02B3,2013-12-04 08:01:00,
2013-12-04 02:06:00,66.0,63.9,29.80,SSE,147,0.0,4.0,93,0.00,,,0.00,WeatherCatV1.02B3,2013-12-04 08:06:00,
2013-12-04 02:11:00,66.0,63.9,29.81,SSE,150,0.0,4.0,93,0.00,,,0.00,WeatherCatV1.02B3,2013-12-04 08:11:00,
2013-12-04 02:16:00,66.0,63.9,29.80,SSE,148,0.0,1.0,93,0.00,,,0.00,WeatherCatV1.02B3,2013-12-04 08:16:00,
2013-12-04 02:21:00,66.1,64.0,29.80,SE,134,0.0,6.0,93,0.00,,,0.00,WeatherCatV1.02B3,2013-12-04 08:21:00,
2013-12-04 02:26:00,66.1,64.0,29.80,ESE,102,0.0,4.0,93,0.00,,,0.00,WeatherCatV1.02B3,2013-12-04 08:26:00,
2013-12-04 02:31:00,66.1,64.3,29.80,SSE,162,0.0,2.0,94,0.00,,,0.00,WeatherCatV1.02B3,2013-12-04 08:31:00,
2013-12-04 02:36:00,66.2,64.4,29.80,SSE,163,0.0,0.0,94,0.00,,,0.00,WeatherCatV1.02B3,2013-12-04 08:36:00,
2013-12-04 02:41:00,66.1,64.0,29.80,SSE,167,2.0,5.0,93,0.00,,,0.00,WeatherCatV1.02B3,2013-12-04 08:41:00,
2013-12-04 02:46:00,66.1,64.3,29.80,SSE,167,0.0,4.0,94,0.00,,,0.00,WeatherCatV1.02B3,2013-12-04 08:46:00,
2013-12-04 02:51:00,66.1,64.3,29.81,SSE,166,0.0,2.0,94,0.00,,,0.00,WeatherCatV1.02B3,2013-12-04 08:51:00,
2013-12-04 02:56:00,66.1,64.3,29.81,SSE,166,2.0,2.0,94,0.00,,,0.00,WeatherCatV1.02B3,2013-12-04 08:56:00,
2013-12-04 03:01:00,66.1,64.3,29.81,SSE,165,0.0,5.0,94,0.00,,,0.00,WeatherCatV1.02B3,2013-12-04 09:01:00,
2013-12-04 03:06:00,66.1,64.3,29.81,SSE,165,0.0,0.0,94,0.00,,,0.00,WeatherCatV1.02B3,2013-12-04 09:06:00,
2013-12-04 03:11:00,66.2,64.4,29.81,SE,128,0.0,1.0,94,0.00,,,0.00,WeatherCatV1.02B3,2013-12-04 09:11:00,
2013-12-04 03:16:00,66.2,64.4,29.81,SE,129,0.0,0.0,94,0.00,,,0.00,WeatherCatV1.02B3,2013-12-04 09:16:00,
2013-12-04 03:21:00,66.2,64.4,29.81,SE,129,0.0,0.0,94,0.00,,,0.00,WeatherCatV1.02B3,2013-12-04 09:21:00,
2013-12-04 03:26:00,66.2,64.4,29.81,SE,129,0.0,1.0,94,0.00,,,0.00,WeatherCatV1.02B3,2013-12-04 09:26:00,
2013-12-04 03:31:00,66.3,64.5,29.81,SE,129,0.0,1.0,94,0.00,,,0.00,WeatherCatV1.02B3,2013-12-04 09:31:00,
2013-12-04 03:36:00,66.2,64.4,29.81,SE,129,0.0,0.0,94,0.00,,,0.00,WeatherCatV1.02B3,2013-12-04 09:36:00,
2013-12-04 03:41:00,66.3,64.5,29.81,SE,129,1.0,2.0,94,0.00,,,0.00,WeatherCatV1.02B3,2013-12-04 09:41:00,
2013-12-04 03:46:00,66.3,64.5,29.82,SE,129,0.0,2.0,94,0.00,,,0.00,WeatherCatV1.02B3,2013-12-04 09:46:00,
2013-12-04 03:51:00,66.3,64.5,29.82,SE,129,4.0,4.0,94,0.00,,,0.00,WeatherCatV1.02B3,2013-12-04 09:51:00,
2013-12-04 03:56:00,66.3,64.5,29.82,SE,129,0.0,0.0,94,0.00,,,0.00,WeatherCatV1.02B3,2013-12-04 09:56:00,
2013-12-04 04:01:00,66.4,64.6,29.82,SE,129,0.0,1.0,94,0.00,,,0.00,WeatherCatV1.02B3,2013-12-04 10:01:00,
2013-12-04 04:06:00,66.4,64.6,29.82,SE,129,0.0,1.0,94,0.00,,,0.00,WeatherCatV1.02B3,2013-12-04 10:06:00,
2013-12-04 04:11:00,66.4,64.6,29.81,SE,129,0.0,7.0,94,0.00,,,0.00,WeatherCatV1.02B3,2013-12-04 10:11:00,
2013-12-04 04:16:00,66.5,64.7,29.81,SE,130,0.0,2.0,94,0.00,,,0.00,WeatherCatV1.02B3,2013-12-04 10:16:00,
2013-12-04 04:21:00,66.5,64.7,29.81,SE,132,4.0,5.0,94,0.00,,,0.00,WeatherCatV1.02B3,2013-12-04 10:21:00,
2013-12-04 04:26:00,66.5,64.4,29.81,SE,134,0.0,1.0,93,0.00,,,0.00,WeatherCatV1.02B3,2013-12-04 10:26:00,
2013-12-04 04:31:00,66.6,64.5,29.82,SE,133,0.0,0.0,93,0.00,,,0.00,WeatherCatV1.02B3,2013-12-04 10:31:00,
2013-12-04 04:36:00,66.6,64.8,29.81,SE,133,0.0,2.0,94,0.00,,,0.00,WeatherCatV1.02B3,2013-12-04 10:36:00,
2013-12-04 04:41:00,66.6,64.8,29.81,SE,134,0.0,4.0,94,0.00,,,0.00,WeatherCatV1.02B3,2013-12-04 10:41:00,
2013-12-04 04:46:00,66.6,64.5,29.81,ESE,123,0.0,6.0,93,0.00,,,0.00,WeatherCatV1.02B3,2013-12-04 10:46:00,
2013-12-04 04:51:00,66.5,64.4,29.81,SE,125,0.0,1.0,93,0.00,,,0.00,WeatherCatV1.02B3,2013-12-04 10:51:00,
2013-12-04 04:56:00,66.5,64.4,29.81,SE,146,2.0,4.0,93,0.00,,,0.00,WeatherCatV1.02B3,2013-12-04 10:56:00,
2013-12-04 05:01:00,66.5,64.4,29.81,SE,146,0.0,4.0,93,0.00,,,0.00,WeatherCatV1.02B3,2013-12-04 11:01:00,
2013-12-04 05:06:00,66.5,64.4,29.82,SE,146,0.0,1.0,93,0.00,,,0.00,WeatherCatV1.02B3,2013-12-04 11:06:00,
2013-12-04 05:11:00,66.4,64.3,29.82,SE,144,0.0,4.0,93,0.00,,,0.00,WeatherCatV1.02B3,2013-12-04 11:11:00,
2013-12-04 05:16:00,66.4,64.6,29.81,ESE,119,0.0,6.0,94,0.00,,,0.00,WeatherCatV1.02B3,2013-12-04 11:16:00,
2013-12-04 05:21:00,66.5,64.7,29.82,SE,136,2.0,4.0,94,0.00,,,0.00,WeatherCatV1.02B3,2013-12-04 11:21:00,
2013-12-04 05:26:00,66.4,64.6,29.82,SE,135,0.0,1.0,94,0.00,,,0.00,WeatherCatV1.02B3,2013-12-04 11:26:00,
2013-12-04 05:31:00,66.4,64.6,29.82,SE,135,0.0,5.0,94,0.00,,,0.00,WeatherCatV1.02B3,2013-12-04 11:31:00,
2013-12-04 05:36:00,66.4,64.6,29.82,SE,135,0.0,2.0,94,0.00,,,0.00,WeatherCatV1.02B3,2013-12-04 11:36:00,
2013-12-04 05:41:00,66.4,64.6,29.82,SE,136,0.0,1.0,94,0.00,,,0.00,WeatherCatV1.02B3,2013-12-04 11:41:00,
2013-12-04 05:46:00,66.4,64.6,29.82,South,179,0.0,4.0,94,0.00,,,0.00,WeatherCatV1.02B3,2013-12-04 11:46:00,
2013-12-04 05:51:00,66.4,64.6,29.83,SSW,196,2.0,3.0,94,0.00,,,0.00,WeatherCatV1.02B3,2013-12-04 11:51:00,
2013-12-04 05:56:00,66.4,64.6,29.83,SSW,196,0.0,3.0,94,0.00,,,0.00,WeatherCatV1.02B3,2013-12-04 11:56:00,
2013-12-04 06:01:00,66.5,64.7,29.83,SE,128,0.0,5.0,94,0.00,,,0.00,WeatherCatV1.02B3,2013-12-04 12:01:00,
2013-12-04 06:06:00,66.5,64.7,29.84,SE,132,0.0,1.0,94,0.00,,,0.00,WeatherCatV1.02B3,2013-12-04 12:06:00,
2013-12-04 06:11:00,66.5,64.7,29.84,SE,132,0.0,4.0,94,0.00,,,0.00,WeatherCatV1.02B3,2013-12-04 12:11:00,
2013-12-04 06:16:00,66.6,64.8,29.84,SE,132,0.0,1.0,94,0.00,,,0.00,WeatherCatV1.02B3,2013-12-04 12:16:00,
2013-12-04 06:21:00,66.6,64.8,29.84,SE,132,0.0,2.0,94,0.00,,,0.00,WeatherCatV1.02B3,2013-12-04 12:21:00,
2013-12-04 06:26:00,66.7,64.9,29.85,SE,134,0.0,0.0,94,0.00,,,0.00,WeatherCatV1.02B3,2013-12-04 12:26:00,
2013-12-04 06:31:00,66.7,64.9,29.85,SE,136,0.0,4.0,94,0.00,,,0.00,WeatherCatV1.02B3,2013-12-04 12:31:00,
2013-12-04 06:36:00,66.8,65.0,29.85,SE,136,0.0,2.0,94,0.00,,,0.00,WeatherCatV1.02B3,2013-12-04 12:36:00,
2013-12-04 06:41:00,66.8,65.0,29.85,SE,136,0.0,0.0,94,0.00,,,0.00,WeatherCatV1.02B3,2013-12-04 12:41:00,
2013-12-04 06:46:00,66.9,65.1,29.85,SE,136,0.0,0.0,94,0.00,,,0.00,WeatherCatV1.02B3,2013-12-04 12:46:00,
2013-12-04 06:51:00,66.8,65.0,29.85,South,170,0.0,4.0,94,0.00,,,0.00,WeatherCatV1.02B3,2013-12-04 12:51:00,
2013-12-04 06:56:00,66.8,65.0,29.85,South,173,0.0,0.0,94,0.00,,,0.00,WeatherCatV1.02B3,2013-12-04 12:56:00,
2013-12-04 07:01:00,66.9,65.1,29.85,South,169,0.0,4.0,94,0.00,,,0.00,WeatherCatV1.02B3,2013-12-04 13:01:00,
2013-12-04 07:06:00,66.9,65.1,29.86,SE,134,2.0,6.0,94,0.00,,,0.00,WeatherCatV1.02B3,2013-12-04 13:06:00,
2013-12-04 07:11:00,67.0,65.2,29.86,SE,135,0.0,2.0,94,0.00,,,0.00,WeatherCatV1.02B3,2013-12-04 13:11:00,
2013-12-04 07:16:00,67.0,65.2,29.86,SE,134,0.0,2.0,94,0.00,,,0.00,WeatherCatV1.02B3,2013-12-04 13:16:00,
2013-12-04 07:21:00,67.0,65.2,29.86,SE,129,1.0,2.0,94,0.00,,,0.00,WeatherCatV1.02B3,2013-12-04 13:21:00,
2013-12-04 07:26:00,67.1,65.3,29.87,South,173,1.0,2.0,94,0.00,,,0.00,WeatherCatV1.02B3,2013-12-04 13:26:00,
2013-12-04 07:31:00,67.2,65.4,29.87,South,175,0.0,2.0,94,0.00,,,0.00,WeatherCatV1.02B3,2013-12-04 13:31:00,
2013-12-04 07:36:00,67.1,65.3,29.87,South,182,0.0,2.0,94,0.00,,,0.00,WeatherCatV1.02B3,2013-12-04 13:36:00,
2013-12-04 07:41:00,67.2,65.4,29.88,SE,143,0.0,2.0,94,0.00,,,0.00,WeatherCatV1.02B3,2013-12-04 13:41:00,
2013-12-04 07:46:00,67.2,65.4,29.88,SE,143,0.0,0.0,94,0.00,,,0.00,WeatherCatV1.02B3,2013-12-04 13:46:00,
2013-12-04 07:51:00,67.3,65.5,29.88,SE,143,0.0,0.0,94,0.00,,,0.00,WeatherCatV1.02B3,2013-12-04 13:51:00,
2013-12-04 07:56:00,67.4,65.6,29.88,ESE,121,0.0,0.0,94,0.00,,,0.00,WeatherCatV1.02B3,2013-12-04 13:56:00,
2013-12-04 08:01:00,67.4,65.6,29.88,ESE,121,1.0,1.0,94,0.00,,,0.00,WeatherCatV1.02B3,2013-12-04 14:01:00,
2013-12-04 08:06:00,67.4,65.6,29.88,SE,144,2.0,2.0,94,0.00,,,0.00,WeatherCatV1.02B3,2013-12-04 14:06:00,
2013-12-04 08:11:00,67.5,65.7,29.88,South,190,3.0,6.0,94,0.00,,,0.00,WeatherCatV1.02B3,2013-12-04 14:11:00,
2013-12-04 08:16:00,67.7,65.9,29.88,SSE,148,0.0,5.0,94,0.00,,,0.00,WeatherCatV1.02B3,2013-12-04 14:16:00,
2013-12-04 08:21:00,67.9,66.1,29.88,SSE,149,4.0,7.0,94,0.00,,,0.00,WeatherCatV1.02B3,2013-12-04 14:21:00,
2013-12-04 08:26:00,68.1,66.3,29.89,SSW,208,1.0,5.0,94,0.00,,,0.00,WeatherCatV1.02B3,2013-12-04 14:26:00,
2013-12-04 08:31:00,68.3,66.2,29.89,South,178,2.0,3.0,93,0.00,,,0.00,WeatherCatV1.02B3,2013-12-04 14:31:00,
2013-12-04 08:36:00,68.5,66.4,29.89,SSW,211,0.0,5.0,93,0.00,,,0.00,WeatherCatV1.02B3,2013-12-04 14:36:00,
2013-12-04 08:41:00,68.7,66.6,29.90,SSE,164,4.0,6.0,93,0.00,,,0.00,WeatherCatV1.02B3,2013-12-04 14:41:00,
2013-12-04 08:46:00,69.0,66.9,29.90,South,173,2.0,5.0,93,0.00,,,0.00,WeatherCatV1.02B3,2013-12-04 14:46:00,
2013-12-04 08:51:00,69.3,66.9,29.90,South,177,0.0,2.0,92,0.00,,,0.00,WeatherCatV1.02B3,2013-12-04 14:51:00,
2013-12-04 08:56:00,69.5,67.1,29.90,SSE,162,0.0,2.0,92,0.00,,,0.00,WeatherCatV1.02B3,2013-12-04 14:56:00,
2013-12-04 09:01:00,69.7,66.9,29.90,South,177,0.0,4.0,91,0.00,,,0.00,WeatherCatV1.02B3,2013-12-04 15:01:00,
2013-12-04 09:06:00,69.8,67.0,29.91,SE,146,5.0,5.0,91,0.00,,,0.00,WeatherCatV1.02B3,2013-12-04 15:06:00,
2013-12-04 09:11:00,69.9,66.8,29.91,SSW,203,2.0,2.0,90,0.00,,,0.00,WeatherCatV1.02B3,2013-12-04 15:11:00,
2013-12-04 09:16:00,70.0,66.9,29.91,SSW,197,0.0,1.0,90,0.00,,,0.00,WeatherCatV1.02B3,2013-12-04 15:16:00,
2013-12-04 09:21:00,70.2,67.1,29.91,SE,140,2.0,6.0,90,0.00,,,0.00,WeatherCatV1.02B3,2013-12-04 15:21:00,
2013-12-04 09:26:00,70.3,66.9,29.91,SSE,160,4.0,6.0,89,0.00,,,0.00,WeatherCatV1.02B3,2013-12-04 15:26:00,
2013-12-04 09:31:00,70.6,67.2,29.91,SSE,168,0.0,6.0,89,0.00,,,0.00,WeatherCatV1.02B3,2013-12-04 15:31:00,
2013-12-04 09:36:00,70.8,67.4,29.91,ESE,123,4.0,5.0,89,0.00,,,0.00,WeatherCatV1.02B3,2013-12-04 15:36:00,
2013-12-04 09:41:00,71.3,67.6,29.91,WNW,290,2.0,7.0,88,0.00,,,0.00,WeatherCatV1.02B3,2013-12-04 15:41:00,
2013-12-04 09:46:00,71.7,67.6,29.91,SSE,148,4.0,7.0,87,0.00,,,0.00,WeatherCatV1.02B3,2013-12-04 15:46:00,
2013-12-04 09:51:00,72.1,67.7,29.91,South,169,0.0,7.0,86,0.00,,,0.00,WeatherCatV1.02B3,2013-12-04 15:51:00,
2013-12-04 09:56:00,72.4,67.6,29.91,SSW,200,0.0,3.0,85,0.00,,,0.00,WeatherCatV1.02B3,2013-12-04 15:56:00,
2013-12-04 10:01:00,72.7,67.9,29.91,SSE,155,4.0,6.0,85,0.00,,,0.00,WeatherCatV1.02B3,2013-12-04 16:01:00,
2013-12-04 10:06:00,73.1,68.0,29.90,SW,224,3.0,6.0,84,0.00,,,0.00,WeatherCatV1.02B3,2013-12-04 16:06:00,
2013-12-04 10:11:00,73.5,68.0,29.91,South,181,0.0,7.0,83,0.00,,,0.00,WeatherCatV1.02B3,2013-12-04 16:11:00,
2013-12-04 10:16:00,73.7,67.8,29.91,South,182,2.0,4.0,82,0.00,,,0.00,WeatherCatV1.02B3,2013-12-04 16:16:00,
2013-12-04 10:21:00,73.6,67.8,29.90,SSW,195,0.0,5.0,82,0.00,,,0.00,WeatherCatV1.02B3,2013-12-04 16:21:00,
2013-12-04 10:26:00,73.9,68.4,29.90,SSE,168,5.0,12.0,83,0.00,,,0.00,WeatherCatV1.02B3,2013-12-04 16:26:00,
2013-12-04 10:31:00,74.1,67.5,29.90,SSE,150,0.0,9.0,80,0.00,,,0.00,WeatherCatV1.02B3,2013-12-04 16:31:00,
2013-12-04 10:36:00,74.2,67.6,29.90,SSE,167,1.0,7.0,80,0.00,,,0.00,WeatherCatV1.02B3,2013-12-04 16:36:00,
2013-12-04 10:41:00,74.3,67.7,29.89,SSE,149,4.0,6.0,80,0.00,,,0.00,WeatherCatV1.02B3,2013-12-04 16:41:00,
2013-12-04 10:46:00,74.5,67.9,29.89,SE,137,0.0,6.0,80,0.00,,,0.00,WeatherCatV1.02B3,2013-12-04 16:46:00,
2013-12-04 10:51:00,74.8,67.8,29.89,SE,126,0.0,7.0,79,0.00,,,0.00,WeatherCatV1.02B3,2013-12-04 16:51:00,
2013-12-04 10:56:00,75.1,67.8,29.89,SSW,211,0.0,2.0,78,0.00,,,0.00,WeatherCatV1.02B3,2013-12-04 16:56:00,
2013-12-04 11:01:00,75.5,68.1,29.89,SE,136,8.0,8.0,78,0.00,,,0.00,WeatherCatV1.02B3,2013-12-04 17:01:00,
2013-12-04 11:06:00,75.9,68.2,29.89,ESE,120,8.0,8.0,77,0.00,,,0.00,WeatherCatV1.02B3,2013-12-04 17:06:00,
2013-12-04 11:11:00,76.1,68.0,29.89,ESE,117,9.0,9.0,76,0.00,,,0.00,WeatherCatV1.02B3,2013-12-04 17:11:00,
2013-12-04 11:16:00,75.7,67.6,29.88,SSW,196,6.0,11.0,76,0.00,,,0.00,WeatherCatV1.02B3,2013-12-04 17:16:00,
2013-12-04 11:21:00,75.5,67.4,29.88,South,188,1.0,6.0,76,0.00,,,0.00,WeatherCatV1.02B3,2013-12-04 17:21:00,
2013-12-04 11:26:00,75.6,67.9,29.87,SSW,202,0.0,7.0,77,0.00,,,0.00,WeatherCatV1.02B3,2013-12-04 17:26:00,
2013-12-04 11:31:00,76.2,67.7,29.87,SSW,198,5.0,9.0,75,0.00,,,0.00,WeatherCatV1.02B3,2013-12-04 17:31:00,
2013-12-04 11:36:00,76.7,67.4,29.87,SSE,150,2.0,11.0,73,0.00,,,0.00,WeatherCatV1.02B3,2013-12-04 17:36:00,
2013-12-04 11:41:00,76.8,67.9,29.87,SE,124,0.0,10.0,74,0.00,,,0.00,WeatherCatV1.02B3,2013-12-04 17:41:00,
2013-12-04 11:46:00,77.2,67.5,29.86,SE,134,4.0,11.0,72,0.00,,,0.00,WeatherCatV1.02B3,2013-12-04 17:46:00,
2013-12-04 11:51:00,77.5,67.3,29.86,ESE,123,1.0,8.0,71,0.00,,,0.00,WeatherCatV1.02B3,2013-12-04 17:51:00,
2013-12-04 11:56:00,77.6,67.4,29.85,SSW,200,1.0,9.0,71,0.00,,,0.00,WeatherCatV1.02B3,2013-12-04 17:56:00,
2013-12-04 12:01:00,77.6,67.4,29.85,SSW,204,3.0,8.0,71,0.00,,,0.00,WeatherCatV1.02B3,2013-12-04 18:01:00,
2013-12-04 12:06:00,77.6,67.4,29.85,South,178,0.0,8.0,71,0.00,,,0.00,WeatherCatV1.02B3,2013-12-04 18:06:00,
2013-12-04 12:11:00,77.6,67.4,29.85,ESE,104,0.0,6.0,71,0.00,,,0.00,WeatherCatV1.02B3,2013-12-04 18:11:00,
2013-12-04 12:16:00,77.8,67.6,29.85,SSW,197,1.0,12.0,71,0.00,,,0.00,WeatherCatV1.02B3,2013-12-04 18:16:00,
2013-12-04 12:21:00,78.1,67.5,29.85,SSW,209,0.0,8.0,70,0.00,,,0.00,WeatherCatV1.02B3,2013-12-04 18:21:00,
2013-12-04 12:26:00,78.3,67.3,29.85,South,191,4.0,8.0,69,0.00,,,0.00,WeatherCatV1.02B3,2013-12-04 18:26:00,
2013-12-04 12:31:00,78.1,67.1,29.85,SE,124,0.0,6.0,69,0.00,,,0.00,WeatherCatV1.02B3,2013-12-04 18:31:00,
2013-12-04 12:36:00,77.8,66.8,29.84,WSW,240,3.0,5.0,69,0.00,,,0.00,WeatherCatV1.02B3,2013-12-04 18:36:00,
2013-12-04 12:41:00,77.4,66.8,29.84,SW,217,5.0,11.0,70,0.00,,,0.00,WeatherCatV1.02B3,2013-12-04 18:41:00,
2013-12-04 12:46:00,77.3,66.7,29.84,SSW,202,0.0,6.0,70,0.00,,,0.00,WeatherCatV1.02B3,2013-12-04 18:46:00,
2013-12-04 12:51:00,77.4,66.8,29.84,SSW,200,0.0,3.0,70,0.00,,,0.00,WeatherCatV1.02B3,2013-12-04 18:51:00,
2013-12-04 12:56:00,77.6,67.4,29.83,SSW,192,0.0,0.0,71,0.00,,,0.00,WeatherCatV1.02B3,2013-12-04 18:56:00,
2013-12-04 13:01:00,78.0,67.0,29.83,SSE,161,4.0,6.0,69,0.00,,,0.00,WeatherCatV1.02B3,2013-12-04 19:01:00,
2013-12-04 13:06:00,78.3,67.3,29.83,SSE,148,0.0,4.0,69,0.00,,,0.00,WeatherCatV1.02B3,2013-12-04 19:06:00,
2013-12-04 13:11:00,78.4,66.9,29.83,SSW,196,2.0,7.0,68,0.00,,,0.00,WeatherCatV1.02B3,2013-12-04 19:11:00,
2013-12-04 13:16:00,78.3,66.8,29.83,South,180,0.0,4.0,68,0.00,,,0.00,WeatherCatV1.02B3,2013-12-04 19:16:00,
2013-12-04 13:21:00,78.4,66.9,29.83,South,186,3.0,3.0,68,0.00,,,0.00,WeatherCatV1.02B3,2013-12-04 19:21:00,
2013-12-04 13:26:00,78.4,66.5,29.82,SSW,209,2.0,9.0,67,0.00,,,0.00,WeatherCatV1.02B3,2013-12-04 19:26:00,
2013-12-04 13:31:00,78.3,66.8,29.82,SSE,157,0.0,8.0,68,0.00,,,0.00,WeatherCatV1.02B3,2013-12-04 19:31:00,
2013-12-04 13:36:00,78.4,66.9,29.82,SW,219,3.0,9.0,68,0.00,,,0.00,WeatherCatV1.02B3,2013-12-04 19:36:00,
2013-12-04 13:41:00,78.7,67.2,29.82,SSW,209,1.0,9.0,68,0.00,,,0.00,WeatherCatV1.02B3,2013-12-04 19:41:00,
2013-12-04 13:46:00,79.1,67.6,29.82,SE,127,0.0,4.0,68,0.00,,,0.00,WeatherCatV1.02B3,2013-12-04 19:46:00,
2013-12-04 13:51:00,79.2,67.3,29.82,SSW,205,0.0,2.0,67,0.00,,,0.00,WeatherCatV1.02B3,2013-12-04 19:51:00,
2013-12-04 13:56:00,79.1,67.2,29.82,SW,223,0.0,7.0,67,0.00,,,0.00,WeatherCatV1.02B3,2013-12-04 19:56:00,
2013-12-04 14:01:00,78.9,66.6,29.82,SE,131,1.0,7.0,66,0.00,,,0.00,WeatherCatV1.02B3,2013-12-04 20:01:00,
2013-12-04 14:06:00,78.7,66.4,29.82,SSW,200,0.0,5.0,66,0.00,,,0.00,WeatherCatV1.02B3,2013-12-04 20:06:00,
2013-12-04 14:11:00,78.6,66.7,29.82,SW,227,2.0,5.0,67,0.00,,,0.00,WeatherCatV1.02B3,2013-12-04 20:11:00,
2013-12-04 14:16:00,78.8,66.5,29.82,SSE,161,2.0,7.0,66,0.00,,,0.00,WeatherCatV1.02B3,2013-12-04 20:16:00,
2013-12-04 14:21:00,78.9,67.0,29.82,SSE,161,5.0,5.0,67,0.00,,,0.00,WeatherCatV1.02B3,2013-12-04 20:21:00,
2013-12-04 14:26:00,79.0,66.6,29.82,SSE,157,5.0,7.0,66,0.00,,,0.00,WeatherCatV1.02B3,2013-12-04 20:26:00,
2013-12-04 14:31:00,79.0,67.1,29.81,SSW,199,4.0,5.0,67,0.00,,,0.00,WeatherCatV1.02B3,2013-12-04 20:31:00,
2013-12-04 14:36:00,78.9,67.0,29.81,South,186,0.0,5.0,67,0.00,,,0.00,WeatherCatV1.02B3,2013-12-04 20:36:00,
2013-12-04 14:41:00,78.7,66.8,29.81,ESE,119,0.0,6.0,67,0.00,,,0.00,WeatherCatV1.02B3,2013-12-04 20:41:00,
2013-12-04 14:46:00,78.5,66.6,29.81,South,178,4.0,6.0,67,0.00,,,0.00,WeatherCatV1.02B3,2013-12-04 20:46:00,
2013-12-04 14:51:00,78.3,66.8,29.81,SSE,165,1.0,2.0,68,0.00,,,0.00,WeatherCatV1.02B3,2013-12-04 20:51:00,
2013-12-04 14:56:00,78.2,66.8,29.81,SE,126,0.0,5.0,68,0.00,,,0.00,WeatherCatV1.02B3,2013-12-04 20:56:00,
2013-12-04 15:01:00,78.1,66.7,29.81,South,180,1.0,6.0,68,0.00,,,0.00,WeatherCatV1.02B3,2013-12-04 21:01:00,
2013-12-04 15:06:00,77.9,66.5,29.81,SSW,199,3.0,7.0,68,0.00,,,0.00,WeatherCatV1.02B3,2013-12-04 21:06:00,
2013-12-04 15:11:00,77.8,66.4,29.81,SSE,152,1.0,5.0,68,0.00,,,0.00,WeatherCatV1.02B3,2013-12-04 21:11:00,
2013-12-04 15:16:00,77.8,66.4,29.81,SSW,207,0.0,8.0,68,0.00,,,0.00,WeatherCatV1.02B3,2013-12-04 21:16:00,
2013-12-04 15:21:00,77.7,66.3,29.81,SSE,161,0.0,1.0,68,0.00,,,0.00,WeatherCatV1.02B3,2013-12-04 21:21:00,
2013-12-04 15:26:00,77.8,66.4,29.81,SSW,206,3.0,3.0,68,0.00,,,0.00,WeatherCatV1.02B3,2013-12-04 21:26:00,
2013-12-04 15:31:00,77.8,66.4,29.81,South,174,0.0,4.0,68,0.00,,,0.00,WeatherCatV1.02B3,2013-12-04 21:31:00,
2013-12-04 15:36:00,77.7,66.3,29.81,SSE,155,0.0,5.0,68,0.00,,,0.00,WeatherCatV1.02B3,2013-12-04 21:36:00,
2013-12-04 15:41:00,77.6,66.6,29.82,South,187,2.0,2.0,69,0.00,,,0.00,WeatherCatV1.02B3,2013-12-04 21:41:00,
2013-12-04 15:46:00,77.5,66.1,29.82,SE,132,2.0,7.0,68,0.00,,,0.00,WeatherCatV1.02B3,2013-12-04 21:46:00,
2013-12-04 15:51:00,77.5,66.1,29.81,SW,232,0.0,5.0,68,0.00,,,0.00,WeatherCatV1.02B3,2013-12-04 21:51:00,
2013-12-04 15:56:00,77.4,66.4,29.82,SSW,195,0.0,2.0,69,0.00,,,0.00,WeatherCatV1.02B3,2013-12-04 21:56:00,
2013-12-04 16:01:00,77.3,66.3,29.82,SSE,152,0.0,4.0,69,0.00,,,0.00,WeatherCatV1.02B3,2013-12-04 22:01:00,
2013-12-04 16:06:00,77.3,66.3,29.82,South,185,0.0,2.0,69,0.00,,,0.00,WeatherCatV1.02B3,2013-12-04 22:06:00,
2013-12-04 16:11:00,77.1,66.1,29.82,SSW,200,0.0,1.0,69,0.00,,,0.00,WeatherCatV1.02B3,2013-12-04 22:11:00,
2013-12-04 16:16:00,77.1,66.5,29.82,SSW,197,0.0,0.0,70,0.00,,,0.00,WeatherCatV1.02B3,2013-12-04 22:16:00,
2013-12-04 16:21:00,76.9,66.3,29.82,SW,215,2.0,5.0,70,0.00,,,0.00,WeatherCatV1.02B3,2013-12-04 22:21:00,
2013-12-04 16:26:00,76.7,66.6,29.82,South,187,0.0,2.0,71,0.00,,,0.00,WeatherCatV1.02B3,2013-12-04 22:26:00,
2013-12-04 16:31:00,76.5,66.4,29.83,South,184,0.0,5.0,71,0.00,,,0.00,WeatherCatV1.02B3,2013-12-04 22:31:00,
2013-12-04 16:36:00,76.2,66.5,29.83,SE,126,2.0,5.0,72,0.00,,,0.00,WeatherCatV1.02B3,2013-12-04 22:36:00,
2013-12-04 16:41:00,76.1,66.4,29.83,SE,142,1.0,2.0,72,0.00,,,0.00,WeatherCatV1.02B3,2013-12-04 22:41:00,
2013-12-04 16:46:00,75.9,66.2,29.83,SSE,166,0.0,1.0,72,0.00,,,0.00,WeatherCatV1.02B3,2013-12-04 22:46:00,
2013-12-04 16:51:00,75.7,66.4,29.83,SSE,166,0.0,1.0,73,0.00,,,0.00,WeatherCatV1.02B3,2013-12-04 22:51:00,
2013-12-04 16:56:00,75.4,66.1,29.83,SSE,165,0.0,0.0,73,0.00,,,0.00,WeatherCatV1.02B3,2013-12-04 22:56:00,
2013-12-04 17:01:00,75.1,66.2,29.83,SSE,165,0.0,5.0,74,0.00,,,0.00,WeatherCatV1.02B3,2013-12-04 23:01:00,
2013-12-04 17:06:00,74.8,66.3,29.83,SSE,157,0.0,4.0,75,0.00,,,0.00,WeatherCatV1.02B3,2013-12-04 23:06:00,
2013-12-04 17:11:00,74.4,66.3,29.84,SSE,156,0.0,1.0,76,0.00,,,0.00,WeatherCatV1.02B3,2013-12-04 23:11:00,
2013-12-04 17:16:00,74.2,66.1,29.83,SSE,151,0.0,2.0,76,0.00,,,0.00,WeatherCatV1.02B3,2013-12-04 23:16:00,
2013-12-04 17:21:00,73.9,66.2,29.84,SSE,158,0.0,2.0,77,0.00,,,0.00,WeatherCatV1.02B3,2013-12-04 23:21:00,
2013-12-04 17:26:00,73.7,66.0,29.84,SSE,158,0.0,1.0,77,0.00,,,0.00,WeatherCatV1.02B3,2013-12-04 23:26:00,
2013-12-04 17:31:00,73.5,66.2,29.84,SSE,158,0.0,0.0,78,0.00,,,0.00,WeatherCatV1.02B3,2013-12-04 23:31:00,
2013-12-04 17:36:00,73.3,66.0,29.84,SSE,158,0.0,0.0,78,0.00,,,0.00,WeatherCatV1.02B3,2013-12-04 23:36:00,
2013-12-04 17:41:00,73.1,65.8,29.85,SSE,158,2.0,4.0,78,0.00,,,0.00,WeatherCatV1.02B3,2013-12-04 23:41:00,
2013-12-04 17:46:00,72.9,66.0,29.85,SSE,158,0.0,1.0,79,0.00,,,0.00,WeatherCatV1.02B3,2013-12-04 23:46:00,
2013-12-04 17:51:00,72.7,66.2,29.85,SSE,158,0.0,1.0,80,0.00,,,0.00,WeatherCatV1.02B3,2013-12-04 23:51:00,
2013-12-04 17:56:00,72.6,66.1,29.85,SSE,158,0.0,4.0,80,0.00,,,0.00,WeatherCatV1.02B3,2013-12-04 23:56:00,
2013-12-04 18:01:00,72.4,66.2,29.85,SE,128,0.0,1.0,81,0.00,,,0.00,WeatherCatV1.02B3,2013-12-05 00:01:00,
2013-12-04 18:06:00,72.3,66.1,29.85,SE,132,0.0,6.0,81,0.00,,,0.00,WeatherCatV1.02B3,2013-12-05 00:06:00,
2013-12-04 18:11:00,72.2,66.0,29.85,SE,132,0.0,2.0,81,0.00,,,0.00,WeatherCatV1.02B3,2013-12-05 00:11:00,
2013-12-04 18:16:00,72.1,66.3,29.86,SE,133,0.0,0.0,82,0.00,,,0.00,WeatherCatV1.02B3,2013-12-05 00:16:00,
2013-12-04 18:21:00,71.9,66.1,29.86,SE,132,0.0,4.0,82,0.00,,,0.00,WeatherCatV1.02B3,2013-12-05 00:21:00,
2013-12-04 18:26:00,71.7,65.9,29.86,SE,132,0.0,4.0,82,0.00,,,0.00,WeatherCatV1.02B3,2013-12-05 00:26:00,
2013-12-04 18:31:00,71.5,66.1,29.86,SE,133,4.0,4.0,83,0.00,,,0.00,WeatherCatV1.02B3,2013-12-05 00:31:00,
2013-12-04 18:36:00,71.4,66.0,29.86,SSE,155,0.0,5.0,83,0.00,,,0.00,WeatherCatV1.02B3,2013-12-05 00:36:00,
2013-12-04 18:41:00,71.3,66.2,29.86,SE,126,0.0,0.0,84,0.00,,,0.00,WeatherCatV1.02B3,2013-12-05 00:41:00,
2013-12-04 18:46:00,71.3,66.2,29.86,SE,129,0.0,4.0,84,0.00,,,0.00,WeatherCatV1.02B3,2013-12-05 00:46:00,
2013-12-04 18:51:00,71.3,66.2,29.86,SE,137,0.0,5.0,84,0.00,,,0.00,WeatherCatV1.02B3,2013-12-05 00:51:00,
2013-12-04 18:56:00,71.2,66.1,29.86,SE,136,1.0,1.0,84,0.00,,,0.00,WeatherCatV1.02B3,2013-12-05 00:56:00,
2013-12-04 19:01:00,71.2,66.4,29.86,SE,135,0.0,0.0,85,0.00,,,0.00,WeatherCatV1.02B3,2013-12-05 01:01:00,
2013-12-04 19:06:00,71.1,66.4,29.87,SE,139,0.0,0.0,85,0.00,,,0.00,WeatherCatV1.02B3,2013-12-05 01:06:00,
2013-12-04 19:11:00,71.1,66.4,29.87,SE,128,0.0,5.0,85,0.00,,,0.00,WeatherCatV1.02B3,2013-12-05 01:11:00,
2013-12-04 19:16:00,71.1,66.4,29.87,SE,130,2.0,2.0,85,0.00,,,0.00,WeatherCatV1.02B3,2013-12-05 01:16:00,
2013-12-04 19:21:00,71.0,66.6,29.87,SE,130,0.0,4.0,86,0.00,,,0.00,WeatherCatV1.02B3,2013-12-05 01:21:00,
2013-12-04 19:26:00,71.0,66.6,29.87,SE,126,0.0,4.0,86,0.00,,,0.00,WeatherCatV1.02B3,2013-12-05 01:26:00,
2013-12-04 19:31:00,70.9,66.5,29.87,SE,140,0.0,6.0,86,0.00,,,0.00,WeatherCatV1.02B3,2013-12-05 01:31:00,
2013-12-04 19:36:00,70.9,66.5,29.88,SE,124,1.0,6.0,86,0.00,,,0.00,WeatherCatV1.02B3,2013-12-05 01:36:00,
2013-12-04 19:41:00,70.8,66.4,29.88,SE,126,4.0,4.0,86,0.00,,,0.00,WeatherCatV1.02B3,2013-12-05 01:41:00,
2013-12-04 19:46:00,70.7,66.6,29.88,SSE,149,2.0,2.0,87,0.00,,,0.00,WeatherCatV1.02B3,2013-12-05 01:46:00,
2013-12-04 19:51:00,70.7,66.6,29.88,SSE,155,0.0,4.0,87,0.00,,,0.00,WeatherCatV1.02B3,2013-12-05 01:51:00,
2013-12-04 19:56:00,70.6,66.5,29.88,SE,143,2.0,4.0,87,0.00,,,0.00,WeatherCatV1.02B3,2013-12-05 01:56:00,
2013-12-04 20:01:00,70.6,66.9,29.88,SSE,164,1.0,3.0,88,0.00,,,0.00,WeatherCatV1.02B3,2013-12-05 02:01:00,
2013-12-04 20:06:00,70.5,66.8,29.88,SE,126,0.0,1.0,88,0.00,,,0.00,WeatherCatV1.02B3,2013-12-05 02:06:00,
2013-12-04 20:11:00,70.5,66.8,29.88,SSE,155,2.0,6.0,88,0.00,,,0.00,WeatherCatV1.02B3,2013-12-05 02:11:00,
2013-12-04 20:16:00,70.4,66.7,29.89,SE,136,1.0,6.0,88,0.00,,,0.00,WeatherCatV1.02B3,2013-12-05 02:16:00,
2013-12-04 20:21:00,70.3,66.6,29.89,SE,130,1.0,5.0,88,0.00,,,0.00,WeatherCatV1.02B3,2013-12-05 02:21:00,
2013-12-04 20:26:00,70.2,66.5,29.89,SE,126,0.0,5.0,88,0.00,,,0.00,WeatherCatV1.02B3,2013-12-05 02:26:00,
2013-12-04 20:31:00,70.2,66.8,29.89,SSE,155,1.0,4.0,89,0.00,,,0.00,WeatherCatV1.02B3,2013-12-05 02:31:00,
2013-12-04 20:36:00,70.1,66.7,29.89,ESE,119,0.0,5.0,89,0.00,,,0.00,WeatherCatV1.02B3,2013-12-05 02:36:00,
2013-12-04 20:41:00,70.1,66.7,29.89,South,173,0.0,2.0,89,0.00,,,0.00,WeatherCatV1.02B3,2013-12-05 02:41:00,
2013-12-04 20:46:00,70.0,66.6,29.90,South,169,0.0,1.0,89,0.00,,,0.00,WeatherCatV1.02B3,2013-12-05 02:46:00,
2013-12-04 20:51:00,69.9,66.8,29.90,South,175,1.0,4.0,90,0.00,,,0.00,WeatherCatV1.02B3,2013-12-05 02:51:00,
2013-12-04 20:56:00,69.8,66.7,29.90,ESE,123,2.0,4.0,90,0.00,,,0.00,WeatherCatV1.02B3,2013-12-05 02:56:00,
2013-12-04 21:01:00,69.8,66.7,29.90,SE,141,0.0,2.0,90,0.00,,,0.00,WeatherCatV1.02B3,2013-12-05 03:01:00,
2013-12-04 21:06:00,69.7,66.6,29.90,SSE,152,0.0,6.0,90,0.00,,,0.00,WeatherCatV1.02B3,2013-12-05 03:06:00,
2013-12-04 21:11:00,69.7,66.6,29.90,SSE,162,0.0,4.0,90,0.00,,,0.00,WeatherCatV1.02B3,2013-12-05 03:11:00,
2013-12-04 21:16:00,69.6,66.5,29.90,SSE,147,1.0,6.0,90,0.00,,,0.00,WeatherCatV1.02B3,2013-12-05 03:16:00,
2013-12-04 21:21:00,69.5,66.8,29.91,SSE,159,0.0,4.0,91,0.00,,,0.00,WeatherCatV1.02B3,2013-12-05 03:21:00,
2013-12-04 21:26:00,69.5,66.8,29.91,ESE,121,0.0,8.0,91,0.00,,,0.00,WeatherCatV1.02B3,2013-12-05 03:26:00,
2013-12-04 21:31:00,69.4,66.7,29.91,SE,138,1.0,4.0,91,0.00,,,0.00,WeatherCatV1.02B3,2013-12-05 03:31:00,
2013-12-04 21:36:00,69.3,66.6,29.91,SE,125,2.0,6.0,91,0.00,,,0.00,WeatherCatV1.02B3,2013-12-05 03:36:00,
2013-12-04 21:41:00,69.2,66.5,29.91,ESE,122,0.0,5.0,91,0.00,,,0.00,WeatherCatV1.02B3,2013-12-05 03:41:00,
2013-12-04 21:46:00,69.2,66.5,29.91,ESE,122,0.0,5.0,91,0.00,,,0.00,WeatherCatV1.02B3,2013-12-05 03:46:00,
2013-12-04 21:51:00,69.0,66.3,29.91,SE,126,1.0,5.0,91,0.00,,,0.00,WeatherCatV1.02B3,2013-12-05 03:51:00,
2013-12-04 21:56:00,69.0,66.3,29.92,ESE,119,0.0,5.0,91,0.00,,,0.00,WeatherCatV1.02B3,2013-12-05 03:56:00,
2013-12-04 22:01:00,68.9,66.5,29.92,SE,137,0.0,1.0,92,0.00,,,0.00,WeatherCatV1.02B3,2013-12-05 04:01:00,
2013-12-04 22:06:00,68.8,66.4,29.92,ESE,121,0.0,5.0,92,0.00,,,0.00,WeatherCatV1.02B3,2013-12-05 04:06:00,
2013-12-04 22:11:00,68.8,66.4,29.92,ESE,121,0.0,0.0,92,0.00,,,0.00,WeatherCatV1.02B3,2013-12-05 04:11:00,
2013-12-04 22:16:00,68.7,66.3,29.92,ESE,123,0.0,6.0,92,0.00,,,0.00,WeatherCatV1.02B3,2013-12-05 04:16:00,
2013-12-04 22:21:00,68.6,66.2,29.92,SE,126,0.0,5.0,92,0.00,,,0.00,WeatherCatV1.02B3,2013-12-05 04:21:00,
2013-12-04 22:26:00,68.6,66.5,29.92,SE,126,0.0,1.0,93,0.00,,,0.00,WeatherCatV1.02B3,2013-12-05 04:26:00,
2013-12-04 22:31:00,68.5,66.4,29.92,SSE,152,0.0,4.0,93,0.00,,,0.00,WeatherCatV1.02B3,2013-12-05 04:31:00,
2013-12-04 22:36:00,68.5,66.4,29.92,SSE,165,0.0,2.0,93,0.00,,,0.00,WeatherCatV1.02B3,2013-12-05 04:36:00,
2013-12-04 22:41:00,68.5,66.4,29.92,SE,126,0.0,6.0,93,0.00,,,0.00,WeatherCatV1.02B3,2013-12-05 04:41:00,
2013-12-04 22:46:00,68.5,66.4,29.93,SE,128,1.0,4.0,93,0.00,,,0.00,WeatherCatV1.02B3,2013-12-05 04:46:00,
2013-12-04 22:51:00,68.4,66.3,29.93,SE,129,0.0,1.0,93,0.00,,,0.00,WeatherCatV1.02B3,2013-12-05 04:51:00,
2013-12-04 22:56:00,68.3,66.2,29.92,SE,129,0.0,0.0,93,0.00,,,0.00,WeatherCatV1.02B3,2013-12-05 04:56:00,
2013-12-04 23:01:00,68.3,66.2,29.93,SE,129,0.0,4.0,93,0.00,,,0.00,WeatherCatV1.02B3,2013-12-05 05:01:00,
2013-12-04 23:06:00,68.3,66.2,29.93,SE,145,0.0,0.0,93,0.00,,,0.00,WeatherCatV1.02B3,2013-12-05 05:06:00,
2013-12-04 23:11:00,68.2,66.4,29.93,SE,145,0.0,1.0,94,0.00,,,0.00,WeatherCatV1.02B3,2013-12-05 05:11:00,
2013-12-04 23:16:00,68.2,66.4,29.93,SE,145,0.0,0.0,94,0.00,,,0.00,WeatherCatV1.02B3,2013-12-05 05:16:00,
2013-12-04 23:21:00,68.1,66.3,29.93,SE,146,0.0,2.0,94,0.00,,,0.00,WeatherCatV1.02B3,2013-12-05 05:21:00,
2013-12-04 23:26:00,68.1,66.3,29.93,SE,146,0.0,4.0,94,0.00,,,0.00,WeatherCatV1.02B3,2013-12-05 05:26:00,
2013-12-04 23:31:00,68.0,66.2,29.93,SE,146,0.0,0.0,94,0.00,,,0.00,WeatherCatV1.02B3,2013-12-05 05:31:00,
2013-12-04 23:36:00,68.0,66.2,29.94,SE,146,0.0,2.0,94,0.00,,,0.00,WeatherCatV1.02B3,2013-12-05 05:36:00,
2013-12-04 23:41:00,67.9,66.1,29.94,SSE,147,0.0,0.0,94,0.00,,,0.00,WeatherCatV1.02B3,2013-12-05 05:41:00,
2013-12-04 23:46:00,67.9,66.1,29.94,South,177,0.0,0.0,94,0.00,,,0.00,WeatherCatV1.02B3,2013-12-05 05:46:00,
2013-12-04 23:51:00,67.9,66.1,29.94,South,177,0.0,0.0,94,0.00,,,0.00,WeatherCatV1.02B3,2013-12-05 05:51:00,
2013-12-04 23:56:00,67.9,66.1,29.93,South,177,0.0,0.0,94,0.00,,,0.00,WeatherCatV1.02B3,2013-12-05 05:56:00,